Airfield :
LOGIN :

Register | Disclaimer

   EN    FR    IT 

 










Legend :    VFR   Marginal VFR   IFR   Intensive IFR   Very Intensive IFR
Visi :
Ceiling :
>= 8 km
>= 3000ft
5 to 8 km
1000 to 3000 ft
1500m to 5 km
500 to 1000 ft
800 to 1500m
200 to 500 ft
< 800m
< 200 ft
Symbols :   Thunderstorms  Fog  Heavy snow  Heavy precipitations  Wind > 20 kt
SIGMETs :     Misc.  Thunderstorms  Icing  Turbulence  Mountain Waves  Volcanic Ashes






- Airport Elevation : 1504 ft
- IATA code : PNA


LEPP - Noain Pamplona

CURRENT METAR :
  • 230130Z AUTO VRB02KT CAVOK 09/07 Q1019

EXPIRED METARs :
  • 230100Z AUTO 16003KT 120V210 CAVOK 09/07 Q1019
  • 230030Z AUTO 17003KT 120V200 9999 FEW050 09/07 Q1019
  • 230000Z AUTO 08003KT 9999 SCT050 09/07 Q1019
  • 222330Z AUTO VRB02KT CAVOK 10/07 Q1019

TAF TAF LEPP
Valid from the 22 at 21:00 until the 23 at 21:00 UTC


222000Z 2221/2321 17008KT 9999 SCT040 TX22/2315Z TN08/2306Z
TEMPO 2311/2321 18015G25KT



MET'MAP, your aeronautical weather chart ! - Copyright ORBIFLY December 2007 - Disclaimer

ORBIFLY MET'MAP TEAM :

Programming & Development : Alexandra Zaïnal
Concept & original design : Baudouin d'Aumeries
Assistance for programming : Marc-Olivier Méhu
Technical & hardware support : Manuel Goepfert

Contact : metmap@orbifly.com




SOURCES & CREDITS :

   NOAA